STARLINK-32482 (62141 NORAD) Tracking and Keplerian Element Data

This shows tracking and keplerian element data for the satellite.

Feedback or suggestion? Click here.




ElementValue
Catalog62141
NameSTARLINK-32482
Epoch Orbit1111
Epoch Day34.04329754
Epoch Year2025
RAAN262.5031
Inclination43.0018
Eccentricity0.0001367
Argument of Perigee275.9136
Mean Anonmoly84.1561
Mean Motion15.32095053
Decay Rate1.764E-05
L11 62141U 24224C 25034.04329754 .00001764 00000+0 64442-4 0 9997
L22 62141 43.0018 262.5031 0001367 275.9136 84.1561 15.32095053 11113



Live tracking and technical data element details for STARLINK-32482 (NORAD 62141). STARLINK-32482 can be tracked NOW for your location showing map with azimuth and elevation plus other details from your city location.







IsCatalogInMostPopularTable: catalog: 62141, numindb: 13
Update: records affected: 1



GetName: 62141 STARLINK-32482

Hit Count: updated at: Sun, 18 May 2025 23:28:52 GMT